| time (UTC) | temp C | wind direction | speed KPH | gust KPH | rain 1hr cm | rain 24hr cm | rain mn cm | humidity % | barometer mb |
| 20260507155506 | 23 | 99 | 9.7 | 12.9 | 0.00 | 0.00 | 0.00 | 53 | 1017.5 |
| 20260507155005 | 23 | 86 | 9.7 | 11.3 | 0.00 | 0.00 | 0.00 | 53 | 1017.6 |
| 20260507154505 | 23 | 100 | 9.7 | 12.9 | 0.00 | 0.00 | 0.00 | 53 | 1017.5 |
| 20260507154007 | 23 | 110 | 9.7 | 12.9 | 0.00 | 0.00 | 0.00 | 54 | 1017.5 |
| 20260507153505 | 23 | 103 | 9.7 | 11.3 | 0.00 | 0.00 | 0.00 | 55 | 1017.5 |
| 20260507153005 | 23 | 117 | 9.7 | 14.5 | 0.00 | 0.00 | 0.00 | 55 | 1017.4 |
| 20260507151505 | 23 | 80 | 11.3 | 12.9 | 0.00 | 0.00 | 0.00 | 54 | 1017.5 |
| 20260507150006 | 23 | 118 | 9.7 | 14.5 | 0.00 | 0.00 | 0.00 | 50 | 1017.6 |
| 20260507145005 | 23 | 99 | 12.9 | 16.1 | 0.00 | 0.00 | 0.00 | 48 | 1017.6 |
| 20260507144505 | 23 | 95 | 12.9 | 16.1 | 0.00 | 0.00 | 0.00 | 47 | 1017.4 |
| 20260507144015 | 24 | 105 | 11.3 | 14.5 | 0.00 | 0.00 | 0.00 | 47 | 1017.5 |
| 20260507143505 | 24 | 112 | 12.9 | 14.5 | 0.00 | 0.00 | 0.00 | 45 | 1017.4 |
| 20260507143005 | 24 | 112 | 12.9 | 17.7 | 0.00 | 0.00 | 0.00 | 45 | 1017.3 |
| 20260507142005 | 25 | 85 | 11.3 | 14.5 | 0.00 | 0.00 | 0.00 | 45 | 1017.6 |
| 20260507135506 | 25 | 128 | 9.7 | 14.5 | 0.00 | 0.00 | 0.00 | 43 | 1017.6 |
| 20260507135005 | 25 | 157 | 11.3 | 16.1 | 0.00 | 0.00 | 0.00 | 42 | 1017.5 |
| 20260507134505 | 25 | 171 | 11.3 | 16.1 | 0.00 | 0.00 | 0.00 | 40 | 1017.5 |
| 20260507134019 | 26 | 83 | 9.7 | 12.9 | 0.00 | 0.00 | 0.00 | 39 | 1017.4 |
| 20260507133505 | 26 | 112 | 9.7 | 11.3 | 0.00 | 0.00 | 0.00 | 38 | 1017.5 |
| 20260507133006 | 26 | 154 | 9.7 | 11.3 | 0.00 | 0.00 | 0.00 | 37 | 1017.5 |
| 20260507132505 | 26 | 141 | 8.0 | 11.3 | 0.00 | 0.00 | 0.00 | 36 | 1017.3 |
| 20260507131006 | 26 | 109 | 8.0 | 11.3 | 0.00 | 0.00 | 0.00 | 36 | 1017.4 |
| 20260507130505 | 26 | 134 | 8.0 | 11.3 | 0.00 | 0.00 | 0.00 | 36 | 1017.5 |
| 20260507130005 | 26 | 148 | 8.0 | 11.3 | 0.00 | 0.00 | 0.00 | 36 | 1017.5 |
| 20260507125006 | 26 | 113 | 6.4 | 8.0 | 0.00 | 0.00 | 0.00 | 36 | 1017.3 |
| 20260507124505 | 26 | 111 | 8.0 | 12.9 | 0.00 | 0.00 | 0.00 | 35 | 1017.6 |
| 20260507124005 | 26 | 104 | 11.3 | 14.5 | 0.00 | 0.00 | 0.00 | 35 | 1017.5 |
| 20260507123506 | 26 | 82 | 11.3 | 14.5 | 0.00 | 0.00 | 0.00 | 32 | 1017.7 |
| 20260507123005 | 26 | 90 | 8.0 | 14.5 | 0.00 | 0.00 | 0.00 | 31 | 1017.8 |
| 20260507122006 | 26 | 135 | 6.4 | 11.3 | 0.00 | 0.00 | 0.00 | 33 | 1017.8 |
| 20260507121505 | 26 | 107 | 6.4 | 11.3 | 0.00 | 0.00 | 0.00 | 35 | 1018.0 |
| 20260507121005 | 25 | 135 | 8.0 | 9.7 | 0.00 | 0.00 | 0.00 | 36 | 1017.9 |
| 20260507120505 | 25 | 100 | 6.4 | 9.7 | 0.00 | 0.00 | 0.00 | 36 | 1018.1 |
| 20260507120006 | 25 | 95 | 6.4 | 8.0 | 0.00 | 0.00 | 0.00 | 39 | 1017.9 |
| 20260507115505 | 24 | 86 | 8.0 | 9.7 | 0.00 | 0.00 | 0.00 | 40 | 1017.9 |
| 20260507114506 | 24 | 93 | 6.4 | 9.7 | 0.00 | 0.00 | 0.00 | 42 | 1018.1 |
| 20260507114005 | 24 | 94 | 6.4 | 9.7 | 0.00 | 0.00 | 0.00 | 42 | 1018.1 |
| 20260507113505 | 24 | 80 | 4.8 | 8.0 | 0.00 | 0.00 | 0.00 | 44 | 1018.2 |
| 20260507113006 | 24 | 104 | 8.0 | 11.3 | 0.00 | 0.00 | 0.00 | 44 | 1018.2 |
| 20260507112505 | 24 | 117 | 8.0 | 11.3 | 0.00 | 0.00 | 0.00 | 44 | 1018.1 |
| 20260507112005 | 24 | 122 | 6.4 | 11.3 | 0.00 | 0.00 | 0.00 | 45 | 1017.9 |
| 20260507111519 | 24 | 134 | 9.7 | 11.3 | 0.00 | 0.00 | 0.00 | 45 | 1018.1 |
| 20260507111005 | 24 | 126 | 9.7 | 11.3 | 0.00 | 0.00 | 0.00 | 45 | 1018.3 |
| 20260507110505 | 24 | 95 | 9.7 | 11.3 | 0.00 | 0.00 | 0.00 | 45 | 1018.2 |
| 20260507110006 | 25 | 90 | 6.4 | 11.3 | 0.00 | 0.00 | 0.00 | 44 | 1018.4 |
| 20260507105505 | 25 | 113 | 4.8 | 11.3 | 0.00 | 0.00 | 0.00 | 42 | 1018.2 |
| 20260507105005 | 25 | 138 | 4.8 | 4.8 | 0.00 | 0.00 | 0.00 | 42 | 1018.4 |
| 20260507104509 | 25 | 160 | 4.8 | 8.0 | 0.00 | 0.00 | 0.00 | 42 | 1018.5 |
| 20260507104005 | 25 | 157 | 4.8 | 8.0 | 0.00 | 0.00 | 0.00 | 42 | 1018.5 |
| 20260507103505 | 25 | 161 | 4.8 | 9.7 | 0.00 | 0.00 | 0.00 | 42 | 1018.3 |
| 20260507103006 | 24 | 139 | 4.8 | 9.7 | 0.00 | 0.00 | 0.00 | 41 | 1018.2 |
| 20260507102505 | 24 | 99 | 3.2 | 8.0 | 0.00 | 0.00 | 0.00 | 41 | 1018.3 |
| 20260507101507 | 24 | 205 | 6.4 | 8.0 | 0.00 | 0.00 | 0.00 | 38 | 1018.2 |
| 20260507101005 | 25 | 190 | 4.8 | 8.0 | 0.00 | 0.00 | 0.00 | 38 | 1018.0 |
| 20260507100509 | 25 | 174 | 4.8 | 6.4 | 0.00 | 0.00 | 0.00 | 39 | 1018.0 |
| 20260507100005 | 25 | 162 | 4.8 | 6.4 | 0.00 | 0.00 | 0.00 | 40 | 1018.1 |
| 20260507095505 | 24 | 149 | 4.8 | 6.4 | 0.00 | 0.00 | 0.00 | 41 | 1018.0 |
| 20260507094505 | 23 | 191 | 4.8 | 6.4 | 0.00 | 0.00 | 0.00 | 45 | 1018.0 |
| 20260507094005 | 23 | 213 | 6.4 | 8.0 | 0.00 | 0.00 | 0.00 | 45 | 1018.0 |
| 20260507093506 | 23 | 199 | 4.8 | 8.0 | 0.00 | 0.00 | 0.00 | 43 | 1017.8 |
| 20260507093009 | 23 | 202 | 3.2 | 4.8 | 0.00 | 0.00 | 0.00 | 45 | 1018.1 |
| 20260507092505 | 22 | 209 | 6.4 | 9.7 | 0.00 | 0.00 | 0.00 | 45 | 1018.2 |
| 20260507091506 | 22 | 233 | 6.4 | 8.0 | 0.00 | 0.00 | 0.00 | 49 | 1018.3 |
| 20260507091006 | 22 | 226 | 6.4 | 8.0 | 0.00 | 0.00 | 0.00 | 48 | 1018.0 |
| 20260507090505 | 22 | 214 | 6.4 | 8.0 | 0.00 | 0.00 | 0.00 | 48 | 1018.3 |
| 20260507090006 | 22 | 218 | 4.8 | 8.0 | 0.00 | 0.00 | 0.00 | 47 | 1018.2 |
| 20260507085506 | 22 | 238 | 6.4 | 8.0 | 0.00 | 0.00 | 0.00 | 47 | 1018.1 |
| 20260507085008 | 22 | 247 | 4.8 | 8.0 | 0.00 | 0.00 | 0.00 | 47 | 1018.0 |
| 20260507084005 | 21 | 228 | 4.8 | 8.0 | 0.00 | 0.00 | 0.00 | 47 | 1018.1 |
| 20260507083506 | 21 | 214 | 4.8 | 8.0 | 0.00 | 0.00 | 0.00 | 47 | 1017.8 |
| 20260507083006 | 22 | 208 | 4.8 | 8.0 | 0.00 | 0.00 | 0.00 | 47 | 1017.9 |
| 20260507082505 | 22 | 178 | 4.8 | 6.4 | 0.00 | 0.00 | 0.00 | 46 | 1017.8 |
| 20260507082005 | 22 | 157 | 4.8 | 6.4 | 0.00 | 0.00 | 0.00 | 46 | 1018.0 |
| 20260507081505 | 22 | 166 | 4.8 | 6.4 | 0.00 | 0.00 | 0.00 | 46 | 1017.9 |
| 20260507081019 | 22 | 177 | 4.8 | 6.4 | 0.00 | 0.00 | 0.00 | 43 | 1017.8 |
| 20260507080005 | 22 | 149 | 3.2 | 4.8 | 0.00 | 0.00 | 0.00 | 47 | 1018.0 |
| 20260507075005 | 21 | 197 | 4.8 | 4.8 | 0.00 | 0.00 | 0.00 | 48 | 1018.1 |
| 20260507074505 | 20 | 200 | 3.2 | 4.8 | 0.00 | 0.00 | 0.00 | 48 | 1017.9 |
| 20260507074005 | 20 | 173 | 4.8 | 8.0 | 0.00 | 0.00 | 0.00 | 49 | 1017.8 |
| 20260507073506 | 20 | 188 | 6.4 | 9.7 | 0.00 | 0.00 | 0.00 | 49 | 1017.9 |
| 20260507072505 | 20 | 207 | 4.8 | 6.4 | 0.00 | 0.00 | 0.00 | 50 | 1017.8 |
| 20260507072006 | 20 | 207 | 4.8 | 6.4 | 0.00 | 0.00 | 0.00 | 51 | 1017.9 |
| 20260507071506 | 20 | 178 | 4.8 | 4.8 | 0.00 | 0.00 | 0.00 | 51 | 1017.8 |
| 20260507071006 | 20 | 164 | 3.2 | 4.8 | 0.00 | 0.00 | 0.00 | 52 | 1018.0 |
| 20260507070505 | 20 | 181 | 3.2 | 4.8 | 0.00 | 0.00 | 0.00 | 54 | 1017.7 |
| 20260507065505 | 18 | 211 | 6.4 | 8.0 | 0.00 | 0.00 | 0.00 | 57 | 1017.8 |
| 20260507065006 | 18 | 199 | 6.4 | 8.0 | 0.00 | 0.00 | 0.00 | 57 | 1017.9 |
| 20260507064005 | 18 | 191 | 3.2 | 6.4 | 0.00 | 0.00 | 0.00 | 58 | 1018.1 |
| 20260507063006 | 17 | 189 | 4.8 | 6.4 | 0.00 | 0.00 | 0.00 | 61 | 1018.2 |
| 20260507062505 | 17 | 197 | 4.8 | 4.8 | 0.00 | 0.00 | 0.00 | 66 | 1018.3 |
| 20260507061505 | 17 | 208 | 6.4 | 8.0 | 0.00 | 0.00 | 0.00 | 66 | 1018.1 |
| 20260507061005 | 17 | 206 | 6.4 | 8.0 | 0.00 | 0.00 | 0.00 | 66 | 1018.1 |
| 20260507060507 | 17 | 201 | 6.4 | 8.0 | 0.00 | 0.00 | 0.00 | 66 | 1018.2 |
| 20260507060005 | 17 | 204 | 6.4 | 8.0 | 0.00 | 0.00 | 0.00 | 66 | 1018.1 |
| 20260507054006 | 17 | 211 | 6.4 | 6.4 | 0.00 | 0.00 | 0.00 | 66 | 1017.9 |
| 20260507053505 | 17 | 220 | 4.8 | 4.8 | 0.00 | 0.00 | 0.00 | 66 | 1017.9 |
| 20260507053005 | 17 | 199 | 3.2 | 4.8 | 0.00 | 0.00 | 0.00 | 63 | 1017.5 |
| 20260507052005 | 17 | 103 | 1.6 | 3.2 | 0.00 | 0.00 | 0.00 | 64 | 1017.6 |
| 20260507051507 | 17 | 168 | 3.2 | 4.8 | 0.00 | 0.00 | 0.00 | 63 | 1017.5 |
| 20260507050505 | 17 | 176 | 3.2 | 4.8 | 0.00 | 0.00 | 0.00 | 59 | 1017.4 |
| 20260507050005 | 18 | 224 | 1.6 | 3.2 | 0.00 | 0.00 | 0.00 | 58 | 1017.3 |
| 20260507045505 | 18 | 228 | 3.2 | 3.2 | 0.00 | 0.00 | 0.00 | 58 | 1017.2 |
| 20260507045005 | 17 | 217 | 1.6 | 3.2 | 0.00 | 0.00 | 0.00 | 57 | 1017.2 |
| 20260507044005 | 17 | 51 | 1.6 | 1.6 | 0.00 | 0.00 | 0.00 | 61 | 1016.8 |
| 20260507043505 | 17 | 102 | 1.6 | 1.6 | 0.00 | 0.00 | 0.00 | 58 | 1016.9 |
| 20260507043006 | 16 | 77 | 1.6 | 3.2 | 0.00 | 0.00 | 0.00 | 58 | 1017.0 |
| 20260507042505 | 16 | 59 | 1.6 | 3.2 | 0.00 | 0.00 | 0.00 | 57 | 1017.0 |
| 20260507042005 | 16 | 80 | 1.6 | 3.2 | 0.00 | 0.00 | 0.00 | 57 | 1016.8 |
| 20260507041506 | 16 | 227 | 1.6 | 4.8 | 0.00 | 0.00 | 0.00 | 57 | 1017.1 |
| 20260507041005 | 16 | 208 | 1.6 | 4.8 | 0.00 | 0.00 | 0.00 | 57 | 1017.0 |
| 20260507040006 | 16 | 45 | 1.6 | 1.6 | 0.00 | 0.00 | 0.00 | 58 | 1017.0 |
| 20260507034505 | 16 | 10 | 1.6 | 3.2 | 0.00 | 0.00 | 0.00 | 59 | 1016.8 |
| 20260507033505 | 16 | 270 | 3.2 | 4.8 | 0.00 | 0.00 | 0.00 | 58 | 1017.0 |
| 20260507033005 | 16 | 287 | 1.6 | 4.8 | 0.00 | 0.00 | 0.00 | 61 | 1016.8 |
| 20260507031506 | 16 | 52 | 3.2 | 3.2 | 0.00 | 0.00 | 0.00 | 61 | 1016.9 |
| 20260507031005 | 15 | 59 | 1.6 | 3.2 | 0.00 | 0.00 | 0.00 | 61 | 1016.8 |
| 20260507030505 | 15 | 72 | 1.6 | 3.2 | 0.00 | 0.00 | 0.00 | 63 | 1016.8 |
| 20260507025505 | 15 | 145 | 1.6 | 1.6 | 0.00 | 0.00 | 0.00 | 62 | 1016.7 |
| 20260507024505 | 16 | 281 | 1.6 | 3.2 | 0.00 | 0.00 | 0.00 | 64 | 1016.7 |
| 20260507024008 | 16 | 3 | 1.6 | 3.2 | 0.00 | 0.00 | 0.00 | 62 | 1016.5 |
| 20260507023506 | 17 | 54 | 3.2 | 4.8 | 0.00 | 0.00 | 0.00 | 60 | 1016.6 |
| 20260507023005 | 17 | 74 | 3.2 | 4.8 | 0.00 | 0.00 | 0.00 | 56 | 1016.5 |
| 20260507022006 | 17 | 45 | 1.6 | 1.6 | 0.00 | 0.00 | 0.00 | 53 | 1016.5 |
| 20260507021505 | 17 | 63 | 1.6 | 1.6 | 0.00 | 0.00 | 0.00 | 55 | 1016.3 |
| 20260507021008 | 17 | 126 | 1.6 | 1.6 | 0.00 | 0.00 | 0.00 | 56 | 1016.3 |
| 20260507015506 | 17 | 46 | 1.6 | 3.2 | 0.00 | 0.00 | 0.00 | 56 | 1016.3 |
| 20260507015005 | 17 | 18 | 1.6 | 3.2 | 0.00 | 0.00 | 0.00 | 55 | 1016.4 |
| 20260507014505 | 17 | 27 | 1.6 | 3.2 | 0.00 | 0.00 | 0.00 | 54 | 1016.3 |
| 20260507013505 | 17 | 50 | 1.6 | 3.2 | 0.00 | 0.00 | 0.00 | 54 | 1016.3 |
| 20260507013005 | 17 | 66 | 1.6 | 3.2 | 0.00 | 0.00 | 0.00 | 56 | 1016.3 |
| 20260507012505 | 17 | 185 | 3.2 | 4.8 | 0.00 | 0.00 | 0.00 | 55 | 1016.4 |
| 20260507011505 | 17 | 200 | 1.6 | 4.8 | 0.00 | 0.00 | 0.00 | 48 | 1016.0 |
| 20260507011005 | 17 | 58 | 3.2 | 4.8 | 0.00 | 0.00 | 0.00 | 47 | 1016.1 |
| 20260507010505 | 17 | 332 | 4.8 | 4.8 | 0.00 | 0.00 | 0.00 | 47 | 1016.2 |
| 20260507010006 | 17 | 284 | 6.4 | 8.0 | 0.00 | 0.00 | 0.00 | 47 | 1016.2 |
| 20260507005505 | 17 | 269 | 4.8 | 8.0 | 0.00 | 0.00 | 0.00 | 47 | 1016.2 |
| 20260507005005 | 17 | 234 | 3.2 | 4.8 | 0.00 | 0.00 | 0.00 | 48 | 1016.1 |
| 20260507004006 | 17 | 223 | 1.6 | 4.8 | 0.00 | 0.00 | 0.00 | 52 | 1016.0 |
| 20260507003505 | 17 | 225 | 0.0 | 1.6 | 0.00 | 0.00 | 0.00 | 55 | 1016.0 |
| 20260507003005 | 17 | 323 | 0.0 | 1.6 | 0.00 | 0.00 | 0.00 | 56 | 1016.1 |
| 20260507001505 | 17 | 223 | 1.6 | 1.6 | 0.00 | 0.00 | 0.00 | 59 | 1016.3 |
| 20260507000505 | 17 | 267 | 1.6 | 3.2 | 0.00 | 0.00 | 0.00 | 59 | 1016.2 |
| 20260507000005 | 17 | 79 | 3.2 | 4.8 | 0.00 | 0.00 | 0.00 | 59 | 1016.3 |
| 20260506235505 | 18 | 66 | 3.2 | 6.4 | 0.00 | 0.00 | 0.00 | 57 | 1016.3 |
| 20260506235005 | 18 | 101 | 3.2 | 6.4 | 0.00 | 0.00 | 0.00 | 53 | 1016.2 |
| 20260506234514 | 18 | 205 | 4.8 | 11.3 | 0.00 | 0.00 | 0.00 | 49 | 1016.3 |
| 20260506233505 | 19 | 215 | 6.4 | 9.7 | 0.00 | 0.00 | 0.00 | 48 | 1016.3 |
| 20260506233006 | 19 | 289 | 6.4 | 12.9 | 0.00 | 0.00 | 0.00 | 47 | 1016.5 |
| 20260506232005 | 18 | 314 | 6.4 | 9.7 | 0.00 | 0.00 | 0.00 | 48 | 1016.5 |
| 20260506231506 | 18 | 315 | 4.8 | 9.7 | 0.00 | 0.00 | 0.00 | 49 | 1016.7 |
| 20260506231005 | 18 | 314 | 1.6 | 4.8 | 0.00 | 0.00 | 0.00 | 52 | 1016.8 |
| 20260506230505 | 18 | 296 | 3.2 | 4.8 | 0.00 | 0.00 | 0.00 | 53 | 1016.9 |
| 20260506230005 | 18 | 285 | 3.2 | 4.8 | 0.00 | 0.00 | 0.00 | 53 | 1017.1 |
| 20260506225505 | 18 | 282 | 3.2 | 4.8 | 0.00 | 0.00 | 0.00 | 53 | 1016.9 |
| 20260506225005 | 18 | 302 | 3.2 | 4.8 | 0.00 | 0.00 | 0.00 | 55 | 1017.2 |
| 20260506224505 | 18 | 308 | 1.6 | 3.2 | 0.00 | 0.00 | 0.00 | 55 | 1017.1 |
| 20260506224005 | 18 | 270 | 1.6 | 3.2 | 0.00 | 0.00 | 0.00 | 57 | 1017.0 |
| 20260506223505 | 18 | 270 | 0.0 | 1.6 | 0.00 | 0.00 | 0.00 | 58 | 1017.1 |
| 20260506223005 | 18 | 0 | 0.0 | 0.0 | 0.00 | 0.00 | 0.00 | 58 | 1016.9 |
| 20260506222505 | 18 | 225 | 0.0 | 1.6 | 0.00 | 0.00 | 0.00 | 59 | 1016.9 |
| 20260506222005 | 18 | 344 | 1.6 | 3.2 | 0.00 | 0.00 | 0.00 | 60 | 1017.3 |
| 20260506221010 | 19 | 210 | 3.2 | 4.8 | 0.00 | 0.00 | 0.00 | 59 | 1017.1 |
| 20260506220505 | 19 | 235 | 4.8 | 6.4 | 0.00 | 0.00 | 0.00 | 57 | 1017.1 |
| 20260506215006 | 20 | 306 | 4.8 | 9.7 | 0.00 | 0.00 | 0.00 | 55 | 1017.1 |
| 20260506214505 | 20 | 294 | 4.8 | 4.8 | 0.00 | 0.00 | 0.00 | 54 | 1017.0 |
| 20260506214005 | 20 | 303 | 4.8 | 6.4 | 0.00 | 0.00 | 0.00 | 54 | 1017.0 |
| 20260506213505 | 20 | 297 | 3.2 | 6.4 | 0.00 | 0.00 | 0.00 | 54 | 1016.9 |
| 20260506211506 | 20 | 259 | 3.2 | 4.8 | 0.00 | 0.00 | 0.00 | 54 | 1017.0 |
| 20260506211005 | 20 | 236 | 3.2 | 4.8 | 0.00 | 0.00 | 0.00 | 53 | 1017.0 |
| 20260506210505 | 20 | 245 | 3.2 | 4.8 | 0.00 | 0.00 | 0.00 | 53 | 1017.0 |
| 20260506210006 | 20 | 264 | 3.2 | 4.8 | 0.00 | 0.00 | 0.00 | 52 | 1017.0 |
| 20260506205505 | 20 | 296 | 4.8 | 9.7 | 0.00 | 0.00 | 0.00 | 52 | 1017.0 |
| 20260506205005 | 20 | 321 | 6.4 | 9.7 | 0.00 | 0.00 | 0.00 | 52 | 1017.1 |
| 20260506204506 | 20 | 317 | 4.8 | 9.7 | 0.00 | 0.00 | 0.00 | 52 | 1016.9 |
| 20260506204005 | 20 | 298 | 4.8 | 8.0 | 0.00 | 0.00 | 0.00 | 52 | 1017.0 |
| 20260506203505 | 20 | 301 | 4.8 | 8.0 | 0.00 | 0.00 | 0.00 | 53 | 1016.9 |
| 20260506202505 | 20 | 307 | 4.8 | 4.8 | 0.00 | 0.00 | 0.00 | 52 | 1016.9 |
| 20260506202005 | 20 | 333 | 3.2 | 4.8 | 0.00 | 0.00 | 0.00 | 56 | 1017.1 |
| 20260506201507 | 20 | 30 | 1.6 | 3.2 | 0.00 | 0.00 | 0.00 | 59 | 1017.0 |
| 20260506200008 | 20 | 220 | 0.0 | 1.6 | 0.00 | 0.00 | 0.00 | 65 | 1016.7 |
| 20260506195505 | 20 | 145 | 1.6 | 1.6 | 0.00 | 0.00 | 0.00 | 65 | 1016.7 |
| 20260506195005 | 20 | 74 | 1.6 | 3.2 | 0.00 | 0.00 | 0.00 | 65 | 1016.5 |
| 20260506194505 | 20 | 63 | 3.2 | 4.8 | 0.00 | 0.00 | 0.00 | 64 | 1016.6 |
| 20260506194005 | 20 | 44 | 3.2 | 4.8 | 0.00 | 0.00 | 0.00 | 62 | 1016.7 |
| 20260506193508 | 20 | 54 | 3.2 | 4.8 | 0.00 | 0.00 | 0.00 | 59 | 1016.8 |
| 20260506193006 | 21 | 61 | 3.2 | 4.8 | 0.00 | 0.00 | 0.00 | 57 | 1016.8 |
| 20260506192006 | 21 | 220 | 1.6 | 4.8 | 0.00 | 0.00 | 0.00 | 57 | 1016.8 |
| 20260506191505 | 21 | 251 | 3.2 | 4.8 | 0.00 | 0.00 | 0.00 | 58 | 1016.6 |
| 20260506191005 | 21 | 271 | 3.2 | 4.8 | 0.00 | 0.00 | 0.00 | 59 | 1016.7 |
| 20260506190505 | 21 | 243 | 1.6 | 3.2 | 0.00 | 0.00 | 0.00 | 60 | 1016.5 |
| 20260506185505 | 21 | 10 | 1.6 | 4.8 | 0.00 | 0.00 | 0.00 | 62 | 1016.3 |
| 20260506185005 | 21 | 20 | 3.2 | 4.8 | 0.00 | 0.00 | 0.00 | 59 | 1016.3 |
| 20260506184511 | 21 | 31 | 3.2 | 4.8 | 0.00 | 0.00 | 0.00 | 59 | 1016.1 |
| 20260506184005 | 21 | 190 | 3.2 | 3.2 | 0.00 | 0.00 | 0.00 | 61 | 1016.1 |
| 20260506183505 | 21 | 200 | 1.6 | 3.2 | 0.00 | 0.00 | 0.00 | 63 | 1015.9 |
| 20260506183005 | 21 | 210 | 1.6 | 3.2 | 0.00 | 0.00 | 0.00 | 61 | 1015.8 |
| 20260506182509 | 21 | 32 | 1.6 | 3.2 | 0.00 | 0.00 | 0.00 | 62 | 1015.8 |
| 20260506182005 | 21 | 38 | 3.2 | 3.2 | 0.00 | 0.00 | 0.00 | 63 | 1015.7 |
| 20260506181505 | 21 | 355 | 1.6 | 3.2 | 0.00 | 0.00 | 0.00 | 66 | 1015.5 |
| 20260506180506 | 21 | 93 | 1.6 | 3.2 | 0.00 | 0.00 | 0.00 | 66 | 1015.4 |
| 20260506175510 | 21 | 78 | 4.8 | 6.4 | 0.00 | 0.00 | 0.00 | 66 | 1015.4 |
| 20260506174505 | 21 | 137 | 3.2 | 4.8 | 0.00 | 0.00 | 0.00 | 65 | 1015.4 |
| 20260506173505 | 21 | 101 | 4.8 | 4.8 | 0.00 | 0.00 | 0.00 | 63 | 1015.2 |
| 20260506173005 | 22 | 130 | 4.8 | 8.0 | 0.00 | 0.00 | 0.00 | 62 | 1015.1 |
| 20260506172505 | 22 | 131 | 4.8 | 8.0 | 0.00 | 0.00 | 0.00 | 61 | 1015.3 |
| 20260506172005 | 22 | 125 | 4.8 | 8.0 | 0.00 | 0.00 | 0.00 | 57 | 1015.1 |
| 20260506171505 | 22 | 103 | 3.2 | 4.8 | 0.00 | 0.00 | 0.00 | 57 | 1015.0 |
| 20260506171005 | 22 | 92 | 3.2 | 4.8 | 0.00 | 0.00 | 0.00 | 57 | 1014.9 |
| 20260506170506 | 23 | 119 | 3.2 | 4.8 | 0.00 | 0.00 | 0.00 | 56 | 1014.8 |
| 20260506170005 | 23 | 133 | 3.2 | 4.8 | 0.00 | 0.00 | 0.00 | 55 | 1014.8 |
| 20260506165508 | 23 | 124 | 4.8 | 4.8 | 0.00 | 0.00 | 0.00 | 52 | 1014.8 |
| 20260506165005 | 23 | 122 | 3.2 | 4.8 | 0.00 | 0.00 | 0.00 | 51 | 1014.7 |
| 20260506164505 | 23 | 86 | 3.2 | 4.8 | 0.00 | 0.00 | 0.00 | 49 | 1014.9 |
| 20260506164005 | 24 | 111 | 3.2 | 6.4 | 0.00 | 0.00 | 0.00 | 49 | 1014.9 |
| 20260506163505 | 24 | 111 | 4.8 | 6.4 | 0.00 | 0.00 | 0.00 | 49 | 1014.7 |
| 20260506162505 | 24 | 137 | 6.4 | 8.0 | 0.00 | 0.00 | 0.00 | 48 | 1014.9 |
| 20260506161505 | 24 | 116 | 6.4 | 8.0 | 0.00 | 0.00 | 0.00 | 47 | 1014.6 |
| 20260506161005 | 25 | 113 | 8.0 | 8.0 | 0.00 | 0.00 | 0.00 | 47 | 1014.7 |